Probability
1 2 1 0 0 0 0 1 1 1 0 0 1 1 1 2 2 1 0 0 0 0 0 0 0 0 0 0 0 0 0 0 0 0 0 0 0 0 0 0 0 0 0
1 1 1 0 0 0 0 0 0 0 0 0 0 0 0 1 1 0 0 0 0 0 0 0 0 0 0 0 0 0 0 0 0 0 0 0 0 0 0 0 0 0 0
0 0 0 0 0 0 0 0 0 0 0 0 0 0 0 0 0 0 0 0 0 0 0 0 0 0 0 0 0 0 0 0 0 0 0 0 0 0 0 0 0 0 0
0 0 0 0 0 0 0 0 0 0 0 0 0 0 0 0 0 0 0 0 0 0 0 0 0 0 0 0 0 0 0 0 0 0 0 0 0 0 0 0 0 0 0
0 0 0 0 0 0 0 0 0 1 0 0 0 0 0 0 0 0 0 0 0 0 0 0 0 0 0 0 0 0 0 0 0 0 0 0 0 0 0 0 0 0 0
0 0 0 0 0 0 1 0 0 0 0 0 0 0 0 0 0 0 0 0 0 0 0 0 0 0 0 0 0 0 0 0 0 0 0 0 0 0 0 0 0 0 0
0 0 0 0 0 0 0 0 0 0 0 0 0 0 0 0 0 0 0 0 0 0 0 0 0 0 0 0 0 0 0 0 0 0 0 0 0 0 0 0 0 0 0
0 0 0 0 1 0 0 0 0 0 0 0 0 0 0 0 0 0 0 0 0 0 0 0 0 0 0 0 0 0 0 0 0 0 0 0 0 0 0 0 0 0 0
0 0 0 0 1 0 0 1 0 0 0 0 0 0 0 0 0 0 0 0 0 0 0 0 0 0 0 0 0 0 0 0 0 0 0 0 0 0 0 0 0 0 0
1 1 0 1 1 1 0 0 0 0 0 0 0 0 0 0 0 0 0 0 0 0 0 0 0 0 0 0 0 0 0 0 0 0 0 0 0 0 0 0 0 0 0
2 2 1 1 1 1 0 0 0 0 0 0 0 0 0 0 0 0 0 0 0 0 0 0 0 0 0 0 0 0 0 0 0 0 0 0 0 0 0 0 0 0 0
3 3 2 1 0 0 0 0 0 0 0 0 0 0 0 0 0 0 0 0 0 0 0 0 0 0 0 0 0 0 0 0 0 0 0 0 0 0 0 0 0 0 0
4 4 3 1 0 0 0 0 0 0 0 0 0 0 0 0 0 0 0 0 0 0 0 0 0 0 0 0 0 0 0 0 0 0 0 0 0 0 0 0 0 0 0
6 5 3 1 0 0 0 0 0 0 0 0 0 0 0 0 0 0 0 0 0 0 0 0 0 0 0 0 0 0 0 0 0 0 0 0 0 0 0 0 0 0 0
6 5 3 2 1 0 0 0 0 0 0 0 0 0 0 0 0 1 1 0 0 0 0 0 0 0 0 0 0 0 0 0 0 0 0 0 0 0 0 0 0 0 0
6 4 2 2 1 0 0 0 0 0 0 0 0 0 0 0 1 2 1 0 0 0 0 0 0 0 0 0 0 0 0 0 0 0 0 0 0 0 0 0 0 0 0
5 3 1 2 2 1 1 1 1 1 0 0 0 0 0 0 1 2 2 0 0 0 0 0 0 0 0 0 0 0 0 0 0 0 0 0 0 0 0 0 0 0 0
6 5 3 3 3 3 2 2 2 2 1 1 0 0 0 0 1 2 2 1 0 0 0 0 0 0 0 0 0 0 0 0 0 0 0 0 0 0 0 0 0 0 0
11 10 8 6 5 5 5 4 3 3 3 2 1 1 0 0 0 1 1 1 0 0 0 0 0 0 1 1 0 0 0 0 0 0 0 0 0 0 0 0 0 0 0
16 16 14 11 9 8 8 6 5 4 3 3 3 2 1 0 0 0 1 1 0 0 0 1 1 1 1 2 1 0 0 0 0 0 0 0 0 0 0 0 0 0 1
18 19 18 16 13 11 10 8 6 4 3 3 3 2 1 0 0 0 0 1 0 0 0 1 1 1 1 2 1 0 0 0 0 0 0 0 0 0 0 1 1 2 3
18 19 20 19 17 14 11 9 8 7 5 3 3 2 1 0 0 0 0 0 0 0 0 1 1 1 1 2 2 1 0 0 0 0 0 0 0 0 1 2 3 2 3
20 21 22 20 18 16 13 11 11 11 7 4 4 4 2 1 1 2 2 1 1 1 2 2 2 2 2 3 4 3 2 2 2 1 1 1 1 1 2 2 2 1 1
20 22 23 22 20 19 15 13 14 13 9 5 5 6 5 4 5 5 5 4 3 3 4 4 4 4 6 7 7 5 3 3 3 3 3 3 3 2 1 1 0 0 0
17 19 21 22 24 22 18 15 15 14 9 6 6 7 8 9 9 8 7 6 5 4 5 5 4 5 8 8 6 4 3 3 3 3 4 5 4 2 1 1 1 0 0
16 17 18 23 26 24 19 17 17 14 10 9 8 9 11 12 12 10 7 6 5 4 4 5 5 5 6 6 4 3 2 1 2 2 3 4 3 1 1 2 2 1 0
Wind_Speed
7 10 12 13 13 13 14 15 15 15 15 15 15 16 16 16 16 16 16 16 16 16 17 17 16 16 16 16 16 16 16 15 15 15 15 15 14 14 13 12 12 15 15
9 12 12 12 13 14 14 14 14 14 15 15 15 15 15 15 16 16 16 16 16 16 16 16 16 16 16 16 16 15 15 15 15 15 15 15 14 13 11 10 12 13 14
10 12 12 12 13 13 13 14 14 15 15 15 15 15 15 15 15 15 15 16 16 16 16 16 16 16 16 16 15 15 14 14 13 11 10 12 14 12 13 14 15 14 13
10 11 12 13 13 13 13 13 14 14 14 14 14 15 15 14 15 15 15 15 15 16 15 15 15 15 15 15 14 14 13 12 9 6 7 11 12 13 13 13 13 13 13
10 11 13 12 13 13 13 13 13 14 14 14 14 14 14 14 15 14 14 14 14 15 15 14 14 14 14 13 13 13 12 10 5 4 10 10 11 12 12 12 12 12 12
10 12 14 11 12 12 12 13 13 13 13 13 13 13 14 14 14 14 14 14 14 14 14 13 13 13 13 12 12 12 10 7 5 9 9 9 11 11 11 11 12 11 11
11 11 13 12 12 12 12 12 12 12 13 13 13 13 13 13 13 13 13 13 13 13 13 13 12 12 12 11 11 10 8 2 4 9 8 9 11 10 11 11 11 11 10
10 11 13 12 11 11 11 12 12 12 12 12 12 12 12 12 12 12 12 13 13 12 12 12 11 11 11 10 10 8 6 3 6 8 8 9 11 9 10 10 9 9 9
9 10 10 11 11 11 11 11 11 11 11 11 11 11 12 12 12 12 11 11 11 11 11 11 10 10 10 9 8 7 4 2 2 6 8 8 10 8 9 9 9 8 8
8 8 9 8 8 9 11 11 10 10 10 10 10 10 11 11 11 10 11 10 10 10 10 9 9 9 9 8 8 6 4 5 4 7 6 9 9 8 8 8 7 7 7
8 7 7 8 7 7 9 10 10 10 9 9 9 8 6 7 9 8 11 10 9 9 9 8 8 8 7 8 7 5 5 1 5 4 6 11 8 7 7 7 7 7 7
8 8 6 7 7 6 6 6 5 6 6 5 5 5 5 5 4 7 11 8 8 7 8 7 6 7 6 5 7 7 2 3 3 4 7 9 7 6 6 6 6 6 6
8 7 7 6 4 5 5 4 3 3 4 5 6 5 4 4 4 5 5 7 6 6 5 7 6 2 2 3 1 1 2 1 2 3 8 8 6 6 6 6 6 6 6
8 7 7 7 5 3 3 3 3 3 3 3 4 3 4 2 2 3 2 3 3 3 2 2 2 2 1 1 1 1 1 0 1 2 6 8 6 6 6 7 7 7 7
8 7 7 6 6 5 3 2 3 2 3 4 3 3 2 3 3 3 2 1 1 2 3 2 2 2 0 1 1 0 0 0 0 1 4 8 7 6 6 7 7 7 8
9 8 8 7 7 5 4 3 2 2 2 2 3 3 2 2 2 2 2 2 1 1 1 0 1 1 1 0 1 1 2 1 1 2 1 6 8 7 7 6 7 7 8
8 8 8 8 7 7 5 5 3 3 3 2 2 3 2 2 2 1 1 2 1 1 1 2 1 1 2 2 2 2 2 2 2 2 2 2 5 9 8 7 7 7 8
9 8 8 7 8 7 5 4 3 2 2 2 2 3 3 2 2 2 2 2 1 2 2 2 2 2 1 2 2 2 2 2 3 3 3 3 3 3 8 9 8 7 8
9 9 9 8 7 7 6 4 4 2 2 3 3 3 3 4 3 3 2 0 2 2 2 3 1 2 2 2 3 3 3 3 3 4 4 4 4 4 3 7 9 8 8
10 10 9 9 7 7 5 4 3 3 3 3 3 3 4 4 4 4 3 3 3 2 2 2 2 3 3 3 4 2 3 3 3 4 5 4 4 5 5 4 6 8 9
10 10 10 9 8 7 5 5 5 4 4 4 4 5 5 5 4 4 4 3 4 3 3 4 4 4 4 3 3 4 4 5 4 4 4 4 4 4 4 4 4 4 4
11 11 10 10 10 9 6 4 4 3 4 4 4 4 5 5 5 5 5 4 4 3 4 4 4 4 3 3 3 4 3 3 4 4 3 3 4 3 3 4 3 3 3
12 12 10 10 10 9 8 6 5 4 5 5 5 4 5 6 6 5 5 5 4 5 4 4 4 5 4 3 3 3 4 3 1 2 3 3 3 2 3 2 3 3 4
12 11 11 10 10 9 9 8 7 6 5 4 4 3 4 5 6 5 5 5 5 5 4 5 4 4 5 4 3 3 4 4 4 2 3 2 2 2 3 3 3 2 3
11 11 10 10 10 10 9 8 8 7 5 4 4 4 4 4 5 5 5 4 4 4 4 5 4 5 4 4 3 3 4 3 5 4 4 2 1 1 1 2 2 2 2
11 10 10 10 10 9 9 9 8 7 6 5 5 4 4 3 4 5 5 4 4 4 4 5 5 5 5 4 4 4 3 3 3 4 4 4 2 1 1 1 2 2 1
Wind_Direction
91 86 92 98 97 97 96 95 96 98 99 98 97 97 96 96 96 96 97 98 98 98 99 100 100 100 100 100 100 100 102 103 103 103 102 99 100 103 106 115 120 103 106
100 96 96 96 96 96 97 97 97 99 99 98 98 98 97 97 97 96 97 98 99 99 99 98 98 97 98 99 100 100 102 103 104 107 111 108 102 101 100 91 80 100 110
104 106 108 96 97 97 96 98 98 98 98 98 98 98 98 97 97 97 97 97 99 99 99 97 97 98 98 99 100 100 101 102 106 119 139 115 105 99 97 95 98 108 109
109 109 101 101 99 97 97 97 96 97 96 96 97 98 99 99 98 97 98 97 99 100 100 100 100 101 100 100 100 100 100 102 112 156 119 100 105 101 103 105 108 110 110
111 108 104 105 100 98 96 94 94 95 95 95 96 97 98 99 99 99 99 99 100 100 100 101 101 102 103 103 102 101 102 105 129 127 90 94 99 105 107 109 109 111 111
120 113 107 108 104 102 100 98 98 97 97 96 94 96 96 97 99 100 99 100 100 99 100 101 101 104 106 107 106 105 107 127 175 96 99 102 101 110 112 113 112 113 113
118 113 113 110 108 105 103 101 101 100 98 97 96 97 98 98 98 98 99 99 99 99 100 99 99 103 105 107 108 109 112 142 90 95 98 95 96 110 112 111 114 114 115
118 115 116 114 109 107 106 103 101 100 99 99 99 100 101 101 100 99 99 99 100 100 100 99 98 99 101 103 108 113 127 214 112 102 100 98 101 115 116 116 118 118 118
120 119 125 128 125 117 108 105 103 102 102 102 101 102 103 104 103 102 101 101 102 102 101 100 101 99 101 103 107 112 118 284 109 104 103 100 112 121 122 122 123 123 122
124 121 121 117 123 130 123 111 107 106 106 106 104 105 112 116 115 120 117 105 105 103 101 100 102 104 106 106 107 116 152 231 110 110 105 108 125 132 132 132 131 132 130
130 129 129 130 133 129 122 124 128 124 121 129 120 122 147 130 123 133 96 107 108 105 102 101 105 114 127 129 124 145 205 164 95 88 91 109 138 145 146 145 145 145 143
144 142 137 131 138 132 122 129 137 133 127 124 113 123 113 99 97 100 111 110 109 114 119 113 126 162 196 143 146 190 172 112 108 109 103 124 146 157 159 161 163 163 161
151 149 143 138 139 133 135 139 127 119 122 132 122 124 111 125 127 124 131 138 137 154 146 141 176 163 115 85 111 136 83 95 101 111 117 139 161 175 177 177 179 180 180
159 156 146 147 148 142 135 131 150 143 140 130 129 143 125 113 107 106 121 119 138 133 109 130 126 97 69 103 119 90 123 207 97 95 122 150 177 190 192 193 193 195 196
164 164 154 161 154 156 151 175 147 143 140 129 133 132 134 137 127 122 113 106 129 121 145 150 131 118 144 199 246 159 265 240 165 189 132 157 183 200 205 208 208 210 211
174 169 164 172 164 166 173 175 161 158 146 154 145 134 158 135 121 132 152 154 152 158 94 157 150 175 226 242 243 234 255 243 204 229 196 164 186 203 213 220 221 221 222
177 169 173 177 175 179 184 187 181 177 176 166 142 148 177 176 148 187 158 184 170 163 172 219 220 228 230 227 233 242 233 240 238 233 245 229 190 191 204 218 224 226 227
179 175 181 187 178 182 185 195 196 195 181 190 176 169 185 195 194 221 217 196 171 217 218 210 238 244 245 259 253 255 241 215 230 227 229 226 236 209 193 202 219 227 231
183 180 184 190 184 185 183 190 202 198 213 217 196 194 190 202 198 219 237 210 229 229 242 258 212 266 262 267 255 229 239 228 225 233 239 238 229 237 229 182 199 217 229
185 186 188 190 190 189 192 193 201 205 213 213 201 202 213 208 203 220 217 212 246 248 244 261 272 259 269 264 273 276 262 252 240 240 247 243 235 232 235 229 208 206 213
188 189 192 195 188 195 201 205 199 204 213 210 208 202 214 220 210 223 245 212 235 242 250 254 256 245 250 260 263 262 242 231 233 238 243 253 242 236 232 234 239 240 203
192 193 196 199 196 201 202 213 217 223 224 222 223 202 220 222 221 218 229 238 230 241 245 252 255 270 265 249 266 275 259 215 208 221 226 233 250 245 237 228 229 234 256
194 197 201 202 200 205 204 209 209 206 225 217 214 208 218 223 226 235 228 242 243 249 248 251 248 252 264 256 253 273 285 289 299 192 214 230 243 258 255 243 231 236 243
195 195 199 201 203 205 207 217 218 221 228 228 230 218 215 221 230 229 232 239 247 251 248 249 241 251 256 261 247 247 270 301 290 273 218 215 225 245 272 285 277 250 244
194 192 193 198 202 204 210 215 219 228 232 232 231 223 229 218 226 233 232 236 240 248 252 263 263 256 254 257 259 253 248 250 254 271 280 274 242 255 272 277 284 286 273
192 192 191 191 198 201 205 212 219 231 237 241 236 231 226 221 223 226 233 236 241 246 245 251 252 245 253 259 260 261 259 260 260 258 266 274 273 280 304 318 307 316 330